Retour au catalogue

THORAD AGENA D DEB

ActifPO
NORAD 4856·DEBRIS·🇺🇸 United States

Lancé Apr 8, 1970 depuis Vandenberg Space Force Base

Loading…

Prochains Passages

TLE

Source: Space-Track
1 04856U 70025EL  26223.31512921  .00000210  00000-0  13102-3 0  9999
2 04856  99.7436 351.9191 0152941 169.6147 190.8241 14.10574934878183

Suivez THORAD AGENA D DEB en temps réel avec AllMySat

Download on the App Store